Beidou DW 59

operational
NORAD ID: 61186 Int'l Des: 2024-168 Owner: CNSA Country: CN Constellation: BeiDou
MEOCIRCULAR

About Beidou DW 59

Description loading...

Live Position

Loading 3D Globe...

Upcoming Passes

Altitude History

Altitude vs Time

uPlot chart will show altitude changes over time

Two-Line Element Set

1 61186U 24168B 25297.47397978 -.00000055 00000-0 00000+0 0 9992
2 61186 54.6849 310.4279 0005446 285.7261 259.0373 1.86230362 7395
Epoch: Oct 24, 2025 • Age: 51 hours

Current Status

Altitude 21533.3 km
Velocity 3.78 km/s
Sub-Earth Point 4.05°N, 126.38°W
Launch Date Sep 19, 2024
Age 1.1 years
Type navigation

Technical Details

Classification Payload
Mass 1014.00 kg
Dry Mass 850.00 kg
Total Mass 1014.00 kg
Length 2.20 m
Diameter 1.70 m
Span 10.00 m
Shape Box + 2 Pan
Manufacturer CAST
Bus Type BD-3M
Phase Status In Orbit
Owner/State CNSA/CN

Large Constellations

Loading constellations...